, CA

(GMT )
Point Mugu

Weather History for KNTD - March, 2013

Change the Weather History Date:

Thursday, March 14, 2013

  Actual Average Record
Temperature  
Mean Temperature 56 °F -  
Max Temperature 61 °F 61 °F 91 °F (2015)
Min Temperature 50 °F 45 °F 37 °F (2002)
Degree Days  
Heating Degree Days 10    
Growing Degree Days 6 (Base 50)    
Moisture  
Dew Point 51 °F    
Average Humidity 83    
Maximum Humidity 92    
Minimum Humidity 72    
Precipitation  
Precipitation 0.00 in - - ()
Sea Level Pressure  
Sea Level Pressure 30.08 in    
Wind  
Wind Speed 3 mph (WNW)    
Max Wind Speed 10 mph    
Max Gust Speed -    
Visibility 5 miles    
Events Fog    
Averages and records for this station are not official NWS values.
T = Trace of Precipitation, MM = Missing Value Source: NWS Daily Summary

Daily Weather History Graph

Daily Weather History Graph

Search for Another Location

Airport or City:

Trip Planner

Search our weather history database for the weather conditions in past years. The results will help you decide how hot, cold, wet, or windy it might be!

Date:

Astronomy

Mar. 14, 2013 Rise Set
Actual Time 7:07 AM PDT 7:03 PM PDT
Civil Twilight 6:42 AM PDT 7:28 PM PDT
Nautical Twilight 6:13 AM PDT 7:57 PM PDT
Astronomical Twilight 5:44 AM PDT 8:27 PM PDT
Moon 8:34 AM PDT (3/14) 10:13 PM PDT (3/14)
Length of Visible Light 12h 45m
Length of Day
11h 55m
Waxing Crescent, 9% of the Moon is Illuminated
Mar 14
Waxing Crescent
Mar 19
First Quarter
Mar 27
Full
Apr 2
Last Quarter
Apr 10
New

Hourly Weather History & Observations

Time (PDT) Temp. Dew Point Humidity Pressure Visibility Wind Dir Wind Speed Gust Speed Precip Events Conditions
12:54 AM - - N/A% 30.09 in - Calm Calm - N/A   Overcast
1:54 AM - - N/A% 30.09 in - Calm Calm - N/A   Overcast
2:54 AM - - N/A% 30.09 in - South 4.6 mph - N/A   Overcast
3:54 AM - - N/A% 30.09 in - Calm Calm - N/A   Overcast
4:54 AM - - N/A% 30.08 in - Calm Calm - N/A   Overcast
5:54 AM 53.1 °F 48.7 °F 85% 30.09 in 0.1 mi NW 3.5 mph - N/A Fog Fog
6:54 AM 50.7 °F 48.4 °F 92% 30.08 in 0.1 mi NE 3.5 mph - N/A Fog Fog
7:54 AM 50.4 °F 47.7 °F 90% 30.10 in 0.1 mi Calm Calm - N/A Fog Fog
8:54 AM 50.4 °F 47.3 °F 89% 30.11 in 0.2 mi Calm Calm - N/A Fog Fog
9:36 AM 51.8 °F 48.2 °F 88% 30.11 in 0.8 mi Calm Calm - N/A   Overcast
9:38 AM 51.8 °F 48.2 °F 88% 30.11 in 1.0 mi WSW 4.6 mph - N/A   Overcast
9:54 AM 53.6 °F 50.2 °F 88% 30.12 in 1.0 mi West 4.6 mph - N/A   Overcast
10:17 AM 53.6 °F 50.0 °F 88% 30.11 in 3.0 mi Calm Calm - N/A   Mostly Cloudy
10:54 AM 54.7 °F 50.4 °F 85% 30.12 in 6.0 mi SW 8.1 mph - N/A   Scattered Clouds
11:54 AM 61.2 °F 52.2 °F 72% 30.11 in 7.0 mi WNW 6.9 mph - N/A   Scattered Clouds
12:54 PM 59.4 °F 52.2 °F 77% 30.10 in 7.0 mi WNW 9.2 mph - N/A   Scattered Clouds
1:47 PM 59.0 °F 53.6 °F 82% 30.09 in 7.0 mi West 10.4 mph - N/A   Scattered Clouds
1:54 PM 59.0 °F 53.6 °F 82% 30.09 in 7.0 mi West 10.4 mph - N/A   Scattered Clouds
2:54 PM 59.9 °F 53.2 °F 79% 30.08 in 7.0 mi West 9.2 mph - N/A   Scattered Clouds
3:54 PM 60.1 °F 52.5 °F 76% 30.06 in 7.0 mi WNW 9.2 mph - N/A   Scattered Clouds
4:54 PM 59.5 °F 52.0 °F 76% 30.05 in 7.0 mi NW 6.9 mph - N/A   Scattered Clouds
5:54 PM 57.9 °F 50.4 °F 76% 30.04 in 7.0 mi WNW 8.1 mph - N/A   Mostly Cloudy
6:54 PM 56.8 °F 52.2 °F 84% 30.03 in 7.0 mi NNW 5.8 mph - N/A   Mostly Cloudy
7:54 PM 58.8 °F 51.8 °F 77% 30.02 in 7.0 mi NNW 3.5 mph - N/A   Mostly Cloudy
8:54 PM 57.0 °F 51.8 °F 83% 30.03 in 7.0 mi NW 4.6 mph - N/A   Mostly Cloudy
9:54 PM 55.9 °F 51.8 °F 86% 30.03 in 7.0 mi NW 4.6 mph - N/A   Mostly Cloudy
10:54 PM 55.8 °F 52.5 °F 89% 30.04 in 7.0 mi Calm Calm - N/A   Mostly Cloudy
11:54 PM - - N/A% 30.05 in - SW 3.5 mph - N/A   Clear